Regional Weather Roundup
Issued by NWS State College, PA

Home | Current Version | Previous Version | Text Only | Print | Product List | Glossary Off
Versions: 1 2 3 4 5 6 7 8 9 10 11 12 13 14 15 16 17 18 19 20 21 22 23 24 25 26 27 28 29 30 31 32 33 34 35 36 37 38 39 40 41 42 43 44 45 46 47 48 49 50

000
ASUS41 KCTP 030603
RWRCTP

REGIONAL WEATHER ROUNDUP
NATIONAL WEATHER SERVICE STATE COLLEGE PA
200 AM EDT MON AUG 03 2015

Note: "fair" indicates few or no clouds below 12,000 feet with no
significant weather and/or obstructions to visibility.

* = STATION THAT DOES NOT REPORT PRECIPITATION /E.G. RAIN...SNOW...ETC/
    THUNDER OR FOG.

PAZ002>004-007>009-013>016-020>023-029>032-030700-
WESTERN PENNSYLVANIA

CITY           SKY/WX    TMP DP  RH WIND       PRES   REMARKS
ERIE           MOCLDY    69  60  73 NW7       29.81R
MEADVILLE      PTCLDY    73  59  61 NW14G20   29.84R
FRANKLIN*      PTCLDY    70  57  64 S13       29.84R
NEW CASTLE     FAIR      73  61  66 SW7       29.82S
BEAVER COUNTY  NOT AVBL
BUTLER*        PTCLDY    70  59  68 SW9       29.85F
PITTSBURGH INT PTCLDY    73  59  61 SW10      29.84F
PITTSBURGH     CLEAR     69  56  62 S10       29.86S
INDIANA*       CLEAR     70  61  73 W8        29.90S
LATROBE        NOT AVBL
WASHINGTON CO* NOT AVBL
$$

PAZ004>006-010>012-017>019-024>028-033>037-041-042-045-046-049>053-030700-
CENTRAL PENNSYLVANIA

CITY           SKY/WX    TMP DP  RH WIND       PRES   REMARKS
BRADFORD       MOCLDY    69  59  70 SW8       29.84F
DUBOIS         PTCLDY    72  58  61 SW14G23   29.85F
CLEARFIELD     PTCLDY    67  60  78 S8        29.86F
JOHNSTOWN      CLEAR     66  57  72 SW9       29.92F
ALTOONA        CLEAR     67  58  72 S6        29.89F
STATE COLLEGE  PTCLDY    67  61  81 W5        29.85F
WILLIAMSPORT   MOCLDY    67  61  81 CALM      29.81S
SELINSGROVE    PTCLDY    64  62  93 CALM      29.84F
FT INDIANTOWN  NOT AVBL
CAPITAL CITY   CLEAR     69  60  73 SW6       29.85F
HARRISBURG     PTCLDY    74  62  66 W8        29.85F
YORK           CLEAR     69  61  75 CALM      29.86F
$$

PAZ038>040-043-044-047-048-054-055-060>062-067>071-030700-
EASTERN PENNSYLVANIA

CITY           SKY/WX    TMP DP  RH WIND       PRES   REMARKS
SCRANTON       PTCLDY    73  58  59 W3        29.84F
MOUNT POCONO   CLEAR     69  56  62 SW8       29.90F
ALLENTOWN      CLEAR     65  60  84 CALM      29.86S
QUAKERTOWN*    CLEAR     64  61  88 CALM      29.87F
READING        CLEAR     71  61  70 CALM      29.84F
LANCASTER      CLEAR     65  62  90 CALM      29.86F
COATESVILLE    CLEAR     68  63  83 CALM      29.88F
POTTSTOWN      CLEAR     67  62  84 CALM      29.87F
BLUE BELL      CLEAR     64  63  94 CALM      29.87S
DOYLESTOWN     CLEAR     71  59  65 S7        29.86F
WILLOW GROVE   NOT AVBL
NORTH PHILA    CLEAR     76  61  59 S3        29.88F
PHILADELPHIA   CLEAR     75  64  68 S7        29.88F
$$



USA.gov is the U.S. government's official web portal to all federal, state and local government web resources and services.